Toledo Metcalf, OH

7:24 PM EDT on April 27, 2017 (GMT -0400)
Metcalf

Weather History for KTDZ - February, 2013

Change the Weather History Date:

Thursday, February 21, 2013

  Actual Average (KTOL) Record (KTOL)
Temperature  
Mean Temperature 23 °F -  
Max Temperature 25 °F 39 °F 68 °F (1930)
Min Temperature 21 °F 22 °F -9 °F (1978)
Degree Days  
Heating Degree Days 42    
Moisture  
Dew Point 14 °F    
Average Humidity 69    
Maximum Humidity 80    
Minimum Humidity 63    
Precipitation  
Precipitation 0.00 in - - ()
Sea Level Pressure  
Sea Level Pressure 30.34 in    
Wind  
Wind Speed 10 mph (NNE)    
Max Wind Speed 14 mph    
Max Gust Speed -    
Visibility 10 miles    
Events Snow    
Averages and records for this station are not official NWS values.
T = Trace of Precipitation, MM = Missing Value Source: NWS Daily Summary

Daily Weather History Graph

Daily Weather History Graph

Search for Another Location

Airport or City:

Trip Planner

Search our weather history database for the weather conditions in past years. The results will help you decide how hot, cold, wet, or windy it might be!

Date:

Astronomy

Feb. 21, 2013 Rise Set
Actual Time 7:20 AM EST 6:15 PM EST
Civil Twilight 6:52 AM EST 6:43 PM EST
Nautical Twilight 6:20 AM EST 7:15 PM EST
Astronomical Twilight 5:47 AM EST 7:47 PM EST
Moon 2:27 PM EST (2/21) 4:26 AM EST (2/21)
Length of Visible Light 11h 51m
Length of Day
10h 54m
Waxing Gibbous, 83% of the Moon is Illuminated
Feb 21
Waxing Gibbous
Feb 25
Full
Mar 4
Last Quarter
Mar 11
New
Mar 19
First Quarter

Hourly Weather History & Observations

Time (EST) Temp. Windchill Dew Point Humidity Pressure Visibility Wind Dir Wind Speed Gust Speed Precip Events Conditions
12:53 AM 23.0 °F 12.4 °F 15.1 °F 72% 30.28 in 8.0 mi NW 10.4 mph - 0.00 in Snow Light Snow
1:26 AM 23.0 °F 11.1 °F 15.8 °F 74% 30.26 in 10.0 mi WNW 12.7 mph - 0.00 in   Overcast
1:53 AM 23.0 °F 12.4 °F 15.1 °F 72% 30.30 in 5.0 mi NW 10.4 mph - 0.00 in Snow Light Snow
2:53 AM 23.0 °F 11.7 °F 14.0 °F 68% 30.30 in 10.0 mi NW 11.5 mph - 0.00 in   Overcast
3:53 AM 23.0 °F 13.1 °F 12.9 °F 65% 30.30 in 10.0 mi NNW 9.2 mph - 0.00 in   Overcast
4:53 AM 23.0 °F 11.1 °F 12.9 °F 65% 30.31 in 10.0 mi NNW 12.7 mph - N/A   Overcast
5:53 AM 23.0 °F 13.1 °F 12.9 °F 65% 30.33 in 10.0 mi NW 9.2 mph - N/A   Overcast
6:53 AM 23.0 °F 11.7 °F 12.9 °F 65% 30.35 in 10.0 mi NW 11.5 mph - N/A   Overcast
7:53 AM 23.0 °F 14.7 °F 14.0 °F 68% 30.38 in 10.0 mi NNW 6.9 mph - N/A   Overcast
8:53 AM 24.1 °F 17.0 °F 14.0 °F 65% 30.38 in 10.0 mi North 5.8 mph - N/A   Overcast
9:53 AM 24.1 °F 16.0 °F 14.0 °F 65% 30.38 in 10.0 mi North 6.9 mph - N/A   Overcast
10:53 AM 24.1 °F 19.7 °F 15.1 °F 69% 30.39 in 10.0 mi North 3.5 mph - N/A   Overcast
11:53 AM 25.0 °F 19.3 °F 16.0 °F 69% 30.39 in 6.0 mi Variable 4.6 mph - 0.00 in Snow Light Snow
1:53 PM 25.0 °F 14.8 °F 16.0 °F 69% 30.37 in 10.0 mi ENE 10.4 mph - 0.00 in   Overcast
2:53 PM 24.1 °F 15.2 °F 15.1 °F 69% 30.35 in 10.0 mi NE 8.1 mph - N/A   Overcast
3:53 PM 23.0 °F 12.4 °F 14.0 °F 68% 30.32 in 10.0 mi ENE 10.4 mph - N/A   Overcast
4:53 PM 23.0 °F 13.1 °F 12.0 °F 63% 30.37 in 10.0 mi ENE 9.2 mph - N/A   Mostly Cloudy
5:53 PM 21.9 °F 10.4 °F 12.0 °F 66% 30.38 in 10.0 mi East 11.5 mph - N/A   Scattered Clouds
6:02 PM 21.2 °F 10.9 °F 12.2 °F 68% 30.35 in 10.0 mi East 9.2 mph - N/A   Mostly Cloudy
6:53 PM 21.0 °F 10.6 °F 12.9 °F 71% 30.38 in 10.0 mi East 9.2 mph - N/A   Overcast
7:53 PM 21.9 °F 9.8 °F 14.0 °F 72% 30.34 in 10.0 mi East 12.7 mph - N/A   Overcast
8:53 PM 21.9 °F 10.4 °F 14.0 °F 72% 30.33 in 10.0 mi East 11.5 mph - N/A   Overcast
9:53 PM 21.9 °F 11.0 °F 15.1 °F 75% 30.32 in 10.0 mi East 10.4 mph - N/A   Mostly Cloudy
10:01 PM 21.2 °F 10.1 °F 15.8 °F 80% 30.28 in 10.0 mi East 10.4 mph - N/A   Scattered Clouds
10:53 PM 21.9 °F 10.4 °F 15.1 °F 75% 30.31 in 10.0 mi East 11.5 mph - N/A   Partly Cloudy
11:53 PM 23.0 °F 10.6 °F 16.0 °F 74% 30.27 in 10.0 mi East 13.8 mph - N/A   Clear